sat.trackr.live / text

‹ back to catalog

STARLINK-2049

NORAD 47356 · 2021-005H

PAYLOAD ACTIVE UNKNOWN

§ Identity

Operator
Country
US
Launch date
2021-01-20
Launch site
AFETR
Launch vehicle
Mass (kg)
RCS (m²)

Purposes: comms

External: N2YO · Heavens-Above · Gunter

§ Orbital elements

Epoch: 2026-05-25T00:31:39.789984Z

Period
94.01 min
Inclination
53.1594°
Eccentricity
0.0001118
Mean motion
15.31698607 rev/d
Perigee alt
470.0 km
Apogee alt
471.5 km
Semi-major
6,848.9 km
B*
-4.7327e-5
RAAN
41.9468°
Arg perigee
91.6705°
Mean anomaly
268.4424°
Rev number
29,507

§ Raw data

STARLINK-20491 47356U 21005H   26145.02198831 -.00001833  00000+0 -47327-4 0  99962 47356  53.1594  41.9468 0001118  91.6705 268.4424 15.31698607295074

JSON: /api/v1/satellites/47356 · /tle

For live sub-satellite position, see the globe view (requires WebGL).

§ Visibility from observer

Set your observer location to see the next 7 days of passes ≥ 10°. The values pass through the URL so the page stays shareable.

No JS? Fill the form by hand. The geolocation button needs JavaScript.